Temperature
3 3 3 3 3 3 2 2 2 2 2 2 2 2 2 2 1 1 1 1 1 1 1 1 1 1 1 1 1 1 1 1 1 1 1 1 1 0 1 1 1 1 1
3 3 2 2 2 2 2 2 2 2 2 2 2 2 1 1 1 1 1 1 1 1 1 1 1 1 1 1 1 1 0 0 0 0 0 0 0 -0 -0 0 0 0 0
2 2 2 2 2 2 2 2 1 1 1 1 1 1 1 0 0 0 0 0 0 0 1 0 0 0 0 0 0 0 0 -0 -0 -0 -0 -0 -0 -0 -0 -0 -0 -0 0
2 1 2 1 1 1 1 1 1 1 1 1 0 0 0 -0 -0 -0 -0 -0 -0 0 0 0 -0 -0 -0 -0 -0 -0 -0 -1 -1 -1 -1 -1 -1 -1 -1 -1 -1 -1 -0
1 1 1 1 1 1 1 0 0 0 0 -0 -0 -0 -0 -0 -1 -1 -1 -0 -0 -0 -0 -0 -0 -0 -0 -1 -1 -1 -1 -1 -1 -1 -1 -1 -1 -1 -1 -1 -2 -1 -1
1 1 1 0 0 0 0 -0 -0 -0 -1 -1 -1 -1 -1 -1 -1 -1 -1 -1 -1 -1 -1 -1 -1 -1 -1 -1 -1 -1 -1 -1 -1 -1 -1 -1 -1 -1 -2 -2 -2 -2 -2
0 0 0 -0 -0 -0 -0 -1 -1 -1 -1 -1 -1 -1 -1 -1 -1 -1 -1 -1 -1 -1 -1 -1 -1 -1 -1 -1 -1 -1 -1 -1 -1 -1 -1 -1 -1 -2 -2 -2 -2 -2 -2
-0 -0 -0 -1 -1 -1 -1 -1 -1 -1 -2 -1 -1 -1 -2 -2 -2 -2 -2 -2 -2 -2 -1 -1 -1 -1 -2 -2 -2 -2 -2 -1 -1 -2 -2 -2 -2 -2 -2 -2 -2 -2 -2
-1 -1 -1 -1 -1 -1 -1 -1 -2 -2 -2 -2 -2 -2 -2 -2 -2 -2 -2 -2 -2 -2 -2 -2 -2 -2 -2 -2 -2 -2 -2 -2 -2 -2 -2 -2 -2 -2 -2 -2 -2 -2 -2
-1 -1 -1 -2 -2 -2 -2 -2 -2 -2 -2 -2 -2 -2 -2 -2 -2 -2 -3 -3 -3 -3 -2 -2 -2 -2 -2 -2 -2 -2 -2 -2 -2 -2 -2 -2 -2 -2 -3 -3 -3 -3 -3
-2 -2 -2 -2 -2 -2 -2 -2 -2 -3 -3 -3 -3 -3 -3 -3 -3 -3 -3 -3 -3 -3 -3 -3 -3 -3 -3 -3 -3 -3 -3 -3 -3 -3 -3 -3 -3 -3 -3 -3 -3 -3 -3
-2 -2 -2 -2 -2 -3 -2 -3 -3 -3 -3 -3 -3 -3 -3 -3 -3 -3 -3 -3 -3 -3 -3 -3 -3 -3 -3 -3 -3 -3 -3 -3 -3 -3 -3 -3 -3 -3 -3 -3 -3 -3 -3
-2 -2 -2 -3 -3 -3 -3 -3 -3 -3 -3 -3 -4 -4 -4 -3 -4 -4 -4 -3 -3 -3 -3 -3 -3 -3 -3 -3 -3 -3 -4 -3 -3 -3 -3 -3 -3 -3 -3 -3 -3 -3 -3
-3 -3 -3 -3 -3 -3 -3 -3 -3 -3 -4 -4 -4 -4 -4 -4 -4 -4 -4 -4 -4 -4 -4 -4 -3 -3 -4 -4 -4 -4 -4 -4 -4 -4 -4 -4 -4 -4 -4 -3 -3 -3 -3
-3 -3 -3 -3 -3 -4 -3 -3 -4 -4 -4 -4 -4 -4 -4 -4 -4 -4 -4 -4 -4 -4 -4 -4 -4 -4 -4 -4 -4 -4 -4 -4 -4 -4 -4 -4 -4 -4 -4 -4 -4 -4 -4
-3 -3 -4 -4 -4 -4 -4 -4 -4 -4 -4 -4 -4 -4 -4 -4 -4 -4 -4 -4 -4 -4 -4 -4 -4 -4 -4 -4 -4 -4 -4 -5 -5 -5 -5 -4 -4 -4 -4 -4 -4 -4 -4
-4 -4 -4 -4 -4 -4 -4 -4 -4 -4 -4 -4 -4 -4 -4 -4 -4 -4 -4 -4 -4 -4 -4 -4 -4 -4 -5 -5 -5 -5 -5 -5 -5 -5 -5 -5 -5 -5 -5 -5 -4 -5 -5
-4 -4 -4 -4 -4 -4 -4 -5 -5 -4 -4 -4 -4 -4 -5 -4 -4 -5 -4 -4 -5 -5 -5 -4 -5 -5 -5 -5 -5 -5 -5 -5 -5 -5 -5 -5 -5 -5 -5 -5 -5 -5 -5
-4 -4 -4 -4 -5 -5 -5 -5 -5 -5 -5 -5 -5 -5 -5 -5 -5 -5 -5 -5 -5 -5 -5 -5 -5 -5 -5 -5 -5 -5 -5 -5 -5 -5 -5 -5 -5 -5 -5 -5 -5 -5 -5
-4 -4 -4 -5 -5 -5 -5 -5 -5 -5 -5 -5 -5 -5 -5 -5 -5 -5 -5 -5 -5 -5 -5 -5 -5 -5 -5 -5 -5 -5 -5 -5 -5 -5 -5 -5 -5 -5 -5 -5 -5 -5 -5
-4 -5 -5 -5 -5 -5 -5 -5 -5 -5 -5 -5 -5 -5 -5 -5 -5 -5 -5 -5 -5 -5 -5 -5 -5 -5 -5 -5 -5 -5 -5 -5 -5 -5 -5 -5 -5 -5 -5 -5 -5 -5 -5
-5 -5 -5 -5 -5 -5 -5 -5 -5 -5 -6 -6 -6 -6 -6 -6 -5 -5 -5 -5 -5 -5 -5 -5 -5 -5 -5 -5 -5 -5 -5 -5 -5 -5 -5 -5 -5 -5 -5 -5 -5 -5 -5
-5 -5 -5 -5 -5 -5 -5 -5 -6 -6 -6 -6 -6 -6 -6 -6 -6 -6 -5 -5 -5 -5 -5 -5 -5 -5 -5 -5 -5 -5 -5 -5 -5 -5 -5 -5 -5 -5 -5 -5 -5 -5 -5
-5 -5 -5 -6 -6 -6 -6 -6 -6 -6 -6 -6 -6 -6 -6 -6 -6 -6 -6 -6 -6 -5 -5 -5 -5 -5 -5 -5 -5 -5 -5 -5 -5 -5 -5 -5 -5 -5 -5 -5 -5 -5 -5
-5 -5 -6 -6 -6 -6 -6 -6 -6 -6 -6 -6 -6 -6 -6 -6 -6 -6 -6 -6 -6 -6 -5 -5 -6 -5 -5 -5 -5 -5 -5 -5 -5 -5 -5 -5 -5 -5 -5 -5 -5 -5 -5
-5 -6 -6 -6 -6 -6 -6 -6 -6 -6 -6 -6 -6 -6 -6 -6 -6 -6 -6 -6 -6 -6 -6 -6 -6 -6 -5 -5 -5 -5 -5 -5 -5 -5 -5 -5 -5 -5 -5 -5 -5 -5 -5
Wind_Speed
2 2 1 2 2 2 2 3 3 2 3 3 3 3 3 3 3 3 4 4 4 4 4 4 4 3 3 3 2 2 3 3 5 4 3 3 3 4 5 6 7 6 7
2 1 2 2 1 2 2 2 2 3 3 3 3 3 3 3 3 4 4 4 4 5 4 4 5 4 3 3 3 3 3 3 4 5 4 3 4 4 3 4 5 6 6
2 2 2 1 2 2 3 3 2 3 3 2 3 3 4 4 4 4 4 4 5 5 5 5 5 4 4 4 4 4 3 3 3 4 4 3 3 3 3 4 5 4 6
1 2 2 3 3 3 3 3 3 3 3 3 3 4 4 4 4 4 4 4 4 5 5 5 5 5 5 5 4 4 4 3 3 4 4 3 3 3 3 3 4 3 5
1 2 3 3 3 3 3 3 3 4 4 4 4 4 4 4 4 5 5 5 4 5 5 5 5 6 7 5 4 4 4 3 3 3 3 3 3 3 3 3 5 4 5
2 2 2 2 2 3 3 3 3 3 3 3 4 4 4 4 6 7 5 4 4 5 5 4 5 5 6 7 7 6 5 4 4 4 3 4 5 4 3 4 4 4 4
2 2 3 3 3 3 3 3 3 3 3 3 4 4 5 6 7 7 7 4 4 5 4 4 3 4 5 4 5 6 6 7 6 4 4 5 5 5 4 5 5 5 6
2 3 3 3 3 3 3 3 3 3 3 3 4 4 4 5 7 7 6 4 3 4 5 4 4 4 4 4 3 3 3 4 5 4 4 5 5 5 5 5 5 5 5
3 3 3 3 4 4 4 4 3 3 3 3 3 4 4 5 6 6 6 3 3 4 4 4 4 4 5 5 3 3 3 3 4 5 6 6 7 7 5 3 3 4 5
4 4 3 3 4 4 4 4 3 3 4 3 3 4 4 4 6 6 5 3 3 3 3 3 5 5 5 5 3 3 3 3 3 2 3 4 4 4 5 3 3 4 4
4 3 3 3 4 4 4 3 3 3 3 3 4 4 4 4 5 6 5 3 3 3 3 3 3 5 5 5 4 3 4 3 1 1 2 2 2 2 2 2 3 3 4
3 3 3 3 3 3 3 3 3 3 3 3 3 3 3 3 4 5 6 5 4 3 3 3 3 5 5 5 3 3 3 2 0 1 1 2 2 2 2 2 2 2 3
2 3 3 3 3 3 3 3 3 3 3 2 2 2 2 2 3 5 5 5 4 3 3 3 3 3 3 2 3 3 2 1 1 1 2 2 2 2 2 2 3 3 3
3 3 3 2 2 2 2 2 2 2 2 2 2 2 2 2 2 2 2 2 3 2 2 2 2 1 1 2 2 1 1 1 1 2 2 2 2 2 2 2 2 3 3
3 3 3 2 2 2 2 2 2 3 3 3 3 3 3 3 3 4 2 2 2 2 2 1 1 1 1 1 1 1 1 1 1 1 1 1 2 2 2 2 2 2 2
2 2 2 2 1 1 1 1 2 2 2 3 3 3 3 4 4 4 4 3 2 1 2 1 1 1 1 1 1 1 1 1 1 1 1 1 2 2 2 2 2 2 2
2 2 2 2 1 1 1 1 1 2 2 2 2 3 3 3 2 2 2 1 1 1 1 1 1 1 1 1 1 1 2 1 1 1 1 1 2 2 2 2 2 2 2
2 2 2 1 1 1 1 1 1 1 1 2 2 2 2 2 1 1 1 1 0 0 1 1 1 1 1 1 1 1 1 1 1 1 1 2 2 2 2 2 2 2 3
2 1 1 1 1 1 1 1 1 1 1 1 2 2 2 2 2 2 2 1 1 1 0 1 1 1 1 1 1 1 1 1 2 2 2 2 2 2 2 2 2 3 3
2 2 1 1 1 1 0 0 0 0 1 1 1 1 1 1 1 1 1 0 0 0 0 1 1 1 1 1 1 1 1 1 2 2 2 2 2 2 3 3 3 2 3
1 2 2 1 1 1 1 1 1 0 1 2 2 2 1 0 0 0 1 1 0 1 1 1 1 1 1 1 1 2 2 2 2 2 2 2 2 2 2 2 2 2 2
1 1 1 1 1 1 1 1 1 1 1 2 2 2 2 1 0 0 1 1 1 1 1 1 1 1 2 2 2 2 2 2 2 2 2 2 2 2 2 2 2 2 2
2 2 1 1 1 1 1 1 1 1 1 1 2 1 1 1 1 1 1 1 1 1 1 1 1 2 2 2 3 3 3 3 3 3 3 2 2 2 2 2 2 2 2
2 2 2 1 1 1 1 1 1 1 1 1 1 1 1 1 1 1 1 1 1 1 1 1 2 2 3 3 3 3 4 4 4 3 4 4 3 2 2 2 2 2 2
2 2 2 1 1 1 1 1 1 1 1 1 1 1 1 1 1 1 1 1 1 1 2 2 2 2 3 4 4 4 4 5 4 4 3 3 3 3 2 2 2 2 2
2 2 2 2 1 1 1 1 1 1 1 1 1 1 1 1 1 1 1 1 1 1 2 2 3 3 4 4 4 4 5 4 4 4 3 2 2 2 2 2 2 1 1
Wind_Direction
187 189 190 204 204 209 222 233 232 231 228 228 232 235 237 240 238 239 243 243 242 238 231 227 238 237 237 243 239 238 242 240 263 281 279 286 278 286 305 308 304 300 298
192 191 208 215 213 224 241 249 240 238 239 234 231 237 240 241 238 237 244 244 240 235 233 233 240 238 236 240 235 235 238 239 248 273 289 289 281 279 287 295 305 303 299
191 192 210 227 235 242 251 258 254 244 248 244 236 239 243 243 241 243 240 238 242 237 229 231 235 229 238 241 239 235 239 249 247 259 280 285 290 297 304 299 296 295 300
204 205 219 233 240 246 251 257 256 245 243 241 239 240 240 244 243 244 242 239 246 243 234 232 232 227 231 233 235 230 234 241 244 251 270 284 288 292 294 293 303 302 303
214 228 243 253 258 256 256 259 257 251 247 239 238 244 242 245 243 242 238 237 241 243 239 235 234 238 243 240 240 226 225 233 243 252 260 280 282 285 282 287 298 304 300
223 241 255 256 258 260 258 260 262 259 255 243 237 239 245 251 260 264 256 235 238 239 237 238 240 241 247 255 259 253 240 232 234 245 261 260 270 273 277 283 296 299 297
237 252 256 255 256 259 261 261 258 258 254 252 244 240 245 252 261 265 266 247 230 236 230 234 245 249 257 247 258 264 263 259 250 240 243 252 258 258 262 276 283 288 280
249 260 257 253 258 258 249 250 253 250 250 252 251 242 245 256 266 265 265 249 232 237 228 223 227 234 243 246 242 251 253 262 260 254 243 250 255 252 246 260 269 283 284
269 268 267 258 258 257 248 246 246 244 253 252 254 248 248 260 269 266 258 231 238 245 237 229 229 230 248 257 250 249 263 272 276 267 266 270 272 274 273 267 273 286 293
272 272 273 267 260 254 247 246 245 239 247 255 263 255 248 251 266 264 252 223 235 240 236 234 243 252 253 256 239 230 251 268 275 293 301 300 296 288 290 270 253 266 281
276 277 282 281 266 259 249 241 241 245 251 258 265 265 252 253 263 258 250 231 226 229 231 232 239 254 259 265 267 242 251 266 250 256 279 292 299 298 298 288 260 249 262
275 277 280 283 272 260 247 241 237 235 243 250 256 266 255 253 262 258 255 254 242 218 226 230 235 251 260 270 277 272 279 289 241 250 269 282 292 298 300 304 304 291 267
278 278 281 283 277 262 245 246 238 226 224 235 242 261 271 256 257 268 264 257 251 240 225 235 243 256 271 274 277 285 287 250 227 245 266 281 285 282 292 308 323 333 336
272 280 281 275 280 278 258 242 231 221 223 234 243 253 263 265 253 244 240 243 248 245 221 219 241 279 308 305 304 306 295 249 241 245 264 275 285 288 295 304 307 316 320
270 278 282 276 281 281 272 252 244 237 227 228 234 235 243 253 261 268 253 228 214 204 174 159 164 184 228 266 296 307 299 274 275 265 262 271 281 293 304 311 305 308 300
267 276 274 271 276 273 271 309 301 275 273 265 261 263 261 265 271 270 269 258 245 193 149 160 197 213 218 233 253 273 283 271 270 266 270 269 275 288 304 315 312 299 297
252 264 269 264 254 257 252 258 310 337 334 319 308 297 288 279 275 276 273 252 223 157 154 183 214 231 244 243 246 265 283 283 272 259 267 271 274 285 291 299 306 305 302
253 256 258 251 244 243 238 242 247 282 319 325 326 326 318 325 342 350 354 90 110 118 174 197 224 245 254 255 257 272 284 288 281 274 273 271 273 273 276 282 291 295 298
247 256 250 240 245 247 235 233 246 255 283 307 321 322 339 359 13 14 28 92 160 213 221 238 245 251 261 264 268 268 270 271 275 275 271 274 273 271 275 280 284 285 295
239 244 242 226 250 254 228 220 257 279 307 311 304 302 322 1 3 353 8 39 121 236 235 244 255 251 251 264 270 268 266 266 271 277 270 269 269 263 265 271 278 281 290
237 236 233 239 229 230 226 226 241 262 284 295 294 294 310 240 213 271 319 330 286 256 258 253 257 256 256 262 262 261 263 265 263 265 264 265 267 270 269 271 276 282 287
220 213 206 211 211 212 214 222 229 244 268 287 301 315 331 347 318 295 300 303 304 287 268 256 260 260 256 250 248 254 259 260 257 256 261 266 268 272 269 272 280 285 288
203 202 206 209 202 213 232 227 236 248 261 276 288 300 307 307 290 286 298 296 288 300 298 260 259 271 278 273 261 247 245 251 255 253 258 261 262 264 267 274 277 286 291
194 200 202 193 186 195 216 244 252 255 257 265 274 278 285 288 291 295 299 302 304 309 312 297 273 264 277 285 278 267 261 258 255 245 245 246 252 260 264 267 276 276 278
189 194 193 190 193 204 221 235 251 260 269 269 268 278 293 299 296 294 297 298 299 304 309 306 299 290 285 285 281 275 271 270 270 262 244 240 241 245 249 253 258 268 282
187 186 188 186 188 196 206 220 233 237 259 275 276 274 275 282 296 297 294 297 306 307 312 310 304 302 297 293 285 282 285 286 282 277 259 230 231 236 239 246 242 254 261
Height
1463 1464 1464 1464 1465 1465 1465 1465 1465 1465 1465 1465 1464 1464 1464 1464 1464 1463 1463 1463 1463 1464 1464 1464 1465 1465 1465 1465 1465 1465 1465 1465 1463 1461 1461 1460 1460 1459 1457 1456 1455 1454 1452
1461 1461 1461 1461 1461 1461 1461 1461 1461 1460 1460 1460 1460 1459 1459 1459 1459 1459 1459 1459 1459 1459 1459 1459 1460 1460 1460 1460 1460 1460 1460 1460 1459 1457 1456 1456 1455 1454 1453 1452 1451 1449 1448
1458 1458 1458 1457 1457 1457 1457 1456 1456 1456 1456 1455 1455 1454 1454 1454 1454 1454 1454 1454 1454 1454 1454 1455 1455 1455 1455 1455 1455 1455 1456 1456 1455 1454 1452 1452 1451 1450 1449 1448 1447 1445 1444
1455 1455 1454 1454 1454 1453 1453 1453 1452 1452 1451 1451 1450 1450 1450 1450 1450 1449 1449 1449 1449 1449 1450 1450 1450 1450 1450 1450 1451 1451 1451 1451 1451 1450 1449 1447 1447 1446 1446 1444 1442 1441 1440
1451 1451 1451 1450 1450 1450 1449 1448 1448 1447 1447 1446 1446 1446 1445 1445 1445 1445 1445 1445 1445 1445 1445 1445 1445 1446 1446 1446 1446 1447 1447 1447 1446 1446 1445 1444 1443 1442 1442 1440 1438 1436 1435
1448 1447 1447 1447 1446 1446 1445 1444 1443 1442 1442 1442 1442 1441 1441 1441 1441 1441 1441 1440 1440 1440 1440 1441 1441 1442 1442 1442 1443 1443 1444 1443 1443 1442 1441 1440 1439 1439 1438 1437 1435 1433 1431
1445 1444 1444 1443 1442 1442 1441 1440 1439 1438 1438 1438 1437 1437 1437 1436 1437 1437 1437 1436 1436 1436 1436 1437 1437 1437 1438 1438 1439 1439 1439 1439 1439 1439 1437 1437 1436 1435 1435 1433 1432 1430 1428
1442 1441 1440 1439 1438 1437 1437 1436 1435 1434 1434 1433 1433 1433 1432 1432 1432 1432 1433 1432 1432 1432 1432 1433 1433 1434 1434 1435 1435 1435 1435 1435 1435 1434 1434 1433 1433 1432 1431 1430 1429 1427 1425
1438 1437 1436 1435 1434 1433 1433 1432 1431 1430 1430 1429 1429 1428 1428 1428 1428 1429 1429 1428 1428 1428 1429 1429 1430 1430 1431 1431 1431 1431 1431 1431 1431 1430 1430 1429 1429 1428 1428 1427 1425 1423 1421
1435 1434 1433 1431 1430 1429 1429 1428 1427 1427 1426 1425 1425 1425 1424 1424 1424 1425 1425 1425 1425 1425 1425 1426 1426 1427 1427 1428 1428 1427 1427 1427 1427 1426 1426 1425 1425 1424 1424 1423 1422 1420 1418
1431 1430 1429 1428 1427 1426 1425 1424 1423 1422 1422 1421 1421 1421 1421 1421 1421 1421 1421 1422 1422 1421 1421 1422 1423 1423 1424 1424 1424 1424 1424 1423 1423 1422 1422 1421 1421 1420 1420 1419 1418 1417 1415
1428 1427 1425 1424 1423 1422 1421 1420 1419 1419 1418 1418 1418 1417 1418 1418 1418 1417 1418 1418 1419 1418 1418 1419 1419 1420 1421 1421 1421 1421 1421 1420 1419 1419 1418 1418 1417 1417 1416 1416 1415 1414 1412
1424 1423 1422 1421 1420 1419 1417 1416 1416 1416 1415 1415 1415 1414 1414 1415 1414 1415 1415 1415 1415 1416 1416 1416 1417 1417 1418 1418 1418 1418 1417 1417 1416 1416 1415 1414 1414 1414 1413 1412 1411 1410 1409
1421 1419 1419 1418 1416 1415 1414 1413 1413 1413 1412 1412 1412 1412 1411 1411 1412 1412 1412 1412 1413 1413 1413 1413 1414 1414 1414 1414 1415 1414 1414 1414 1414 1413 1412 1412 1412 1411 1410 1409 1408 1407 1406
1418 1417 1416 1414 1413 1412 1412 1411 1410 1410 1410 1410 1410 1409 1409 1409 1409 1409 1409 1410 1410 1410 1410 1410 1411 1411 1411 1411 1411 1411 1411 1411 1411 1411 1410 1409 1409 1408 1408 1407 1406 1405 1404
1415 1414 1413 1412 1411 1410 1409 1409 1408 1408 1408 1408 1408 1408 1407 1407 1407 1408 1408 1408 1408 1408 1408 1408 1408 1408 1408 1408 1408 1408 1409 1409 1408 1408 1408 1407 1406 1406 1405 1405 1404 1403 1402
1413 1412 1411 1410 1409 1408 1407 1407 1406 1406 1406 1406 1406 1406 1406 1405 1405 1406 1406 1406 1406 1406 1406 1406 1406 1406 1406 1406 1406 1406 1406 1406 1406 1406 1406 1405 1405 1404 1403 1403 1402 1401 1400
1411 1410 1409 1408 1407 1407 1406 1405 1405 1404 1404 1404 1405 1404 1404 1404 1404 1404 1404 1404 1404 1404 1404 1404 1404 1404 1404 1404 1405 1405 1405 1404 1404 1404 1404 1403 1403 1402 1402 1401 1401 1400 1399
1409 1408 1407 1406 1406 1405 1405 1404 1404 1404 1404 1403 1403 1403 1403 1403 1403 1403 1402 1402 1402 1402 1402 1402 1402 1403 1403 1403 1403 1403 1403 1403 1403 1402 1402 1402 1401 1401 1400 1400 1399 1399 1398
1407 1406 1406 1405 1404 1404 1404 1403 1403 1403 1403 1402 1402 1402 1402 1402 1401 1401 1401 1401 1401 1401 1401 1401 1401 1401 1401 1401 1401 1401 1401 1401 1401 1401 1400 1400 1399 1399 1399 1398 1398 1397 1396
1405 1404 1404 1403 1403 1403 1403 1403 1402 1402 1402 1401 1401 1401 1401 1401 1400 1400 1400 1400 1400 1400 1400 1400 1400 1400 1400 1400 1400 1400 1400 1399 1399 1399 1398 1398 1398 1397 1397 1397 1396 1396 1395
1403 1402 1402 1402 1402 1402 1402 1402 1402 1401 1401 1401 1400 1400 1400 1400 1400 1399 1399 1399 1399 1399 1399 1398 1398 1398 1398 1398 1398 1398 1398 1397 1397 1397 1397 1396 1396 1396 1395 1395 1394 1394 1394
1401 1401 1401 1401 1401 1401 1401 1400 1400 1400 1400 1400 1399 1399 1399 1399 1399 1399 1399 1398 1398 1398 1397 1397 1397 1397 1397 1396 1396 1396 1396 1396 1396 1395 1395 1394 1394 1394 1394 1394 1393 1393 1392
1399 1399 1399 1399 1400 1400 1399 1399 1399 1399 1399 1398 1398 1398 1398 1398 1398 1398 1398 1398 1397 1397 1396 1396 1395 1395 1395 1395 1395 1395 1394 1394 1394 1394 1393 1393 1393 1393 1392 1392 1392 1391 1391
1397 1397 1398 1398 1398 1398 1398 1398 1398 1398 1398 1397 1397 1397 1397 1397 1397 1397 1397 1397 1396 1396 1395 1395 1394 1394 1394 1394 1393 1393 1393 1393 1392 1392 1392 1392 1391 1391 1391 1390 1390 1390 1390
1396 1396 1397 1397 1397 1397 1397 1397 1397 1397 1397 1396 1396 1396 1396 1396 1396 1396 1396 1396 1395 1395 1394 1394 1393 1393 1393 1392 1392 1392 1392 1391 1391 1391 1390 1390 1390 1389 1389 1389 1389 1389 1389